Location: Adamstown South Public School
(32.9318°S, 151.7012°E)
Time: 14:15:56
(UTC+00:00)

CZ-4B R/B - Pass Details

Date: 07 June 2020
Orbit: 808 x 882 km, 99.1° (Epoch: 04 July)

Event Time Altitude Azimuth Distance (km) Brightness Sun altitude
Rises 08:05:53 0° 171° (S) 3,442 6.1 -14.9°
Reaches altitude 10° 08:08:16 10° 174° (S) 2,511 5.4 -15.4°
Maximum altitude 08:13:47 64° 254° (WSW) 962 3.7 -16.5°
Drops below altitude 10° 08:19:20 10° 334° (NNW) 2,523 6.3 -17.6°
Sets 08:21:44 0° 337° (NNW) 3,460 7.0 -18.1°
